Zurück zum Katalog

STARLINK-35379

AktivKommunikationVLEO
NORAD 66084·PAYLOAD·🇺🇸 United States

Gestartet Oct 19, 2025 von Cape Canaveral Space Force Station

Loading…

Nächste Überflüge (nächste 24 Stunden)

TLE

AktuellSource: CelesTrak SupGP

Epoche: Sep 14, 2026, 21:35 UTC

1 66084C 25235AC  26257.89979167 -.00005269  00000+0 -15572-3 0  2572
2 66084  53.1592  85.8517 0001204  81.9321  81.6249 15.34384557    12

Verfolge STARLINK-35379 in Echtzeit mit AllMySat

Download on the App Store